Погода в Няксимволе

Погода в Няксимволе : погода сейчас, прогноз погоды и архив. Всё, что Вы хотите узнать о погоде в Няксимволе!

Хотите узнать прогноз погоды в Няксимволе? Тогда Вам сюда: Погода в Няксимволе

Поиск расширенной информации на нашем сайте:

Другие новости

Новости СМИ2

Главная страница сайта

Новости сайта

03.07.2017

Напоминаем, что на нашем специализированном сайте Метеоцентр.Азия вы можете получить высокодетализированные автоматические прогнозы погоды по пунктам России, СНГ и мира в авиационном формате (включающие направление и скорость ветра, видимость, явления погоды, количество и форму облачности, нижнюю и верхнюю границу облачности).


Погода в Няксимволе - сегодня

Время (UTC), дата Ветер
(°,м/с) 
Видим.   Явления Облачность Т
(°С)
Тd
(°С)
f(%) Тe
(°С)
Pmin
(гПа)
dP
(гПа)
Po
(мм)
O2
(г/м3)
Тmin Tmax R s Состояние
почвы
21 21.11.17 080 (В) 20000 м  слаб. снег  10/0 средняя 
[As op]
-0.7 -1.7 93 -3  1016.5  -1.2  758  306           
00 22.11.17 070 (В) 20000 м  {снег}  10/0 средняя 
[As op]
-0.5 -1.5 93 -1  1015.6  -0.9  757  306           
03 22.11.17 310 (СЗ) 20000 м    10/0 средняя 
[As op]
-5.9 -7.1 91 -8  1016  0.3  757  313  -5.9    20  равномерный
сухой снег
100% 
06 22.11.17 310 (СЗ) 20000 м    10/0 средняя 
[As trans]
-8.5 -9.9 90 -11  1017.2  1.1  758  316  -8.5         
09 22.11.17 320 (СЗ) 20000 м    10/0 средняя 
[As trans]
-8.9 -10.4 89 -11  1018.2  1.1  759  317           
12 22.11.17 330 (СЗ) 20000 м    10/0 средняя 
[As trans]
-9 -10.5 89 -9  1019.2  759  317           
15 22.11.17 320 (СЗ) 20000 м    10/0 средняя 
[As trans]
-9.2 -10.8 88 -11  1019.7  0.5  760  318    -5.9       
18 22.11.17 320 (СЗ) 20000 м    10/0 средняя 
[As trans]
-9.6 -11.2 88 -11  1019.5  -0.2  760  318           
21 22.11.17 310 (СЗ) 20000 м  слаб. снег  10/0 средняя 
[As op]
-10.1 -11.7 88 -12  1019.6  0.1  760  319           
00 23.11.17 350 (С) 20000 м  слаб. снег  10/0 средняя 
[As op]
-10.8 -12.6 87 -11  1019.3  -0.3  759  320           
03 23.11.17 320 (СЗ) 20000 м  слаб. снег  10/0 средняя 
[As op]
-11.6 -13.4 86 -11  1019.2  0.1  759  321  -11.6    0.3  20  равномерный
сухой снег
100% 
06 23.11.17 340 (С) 20000 м  слаб. снег  10/0 средняя 
[As op]
-12 -13.9 86 -12  1018.9  -0.2  759  321  -12.1         
09 23.11.17 310 (СЗ) 20000 м  слаб. снег  10/0 средняя 
[As op]
-12 -13.9 86 -12  1019.2  0.3  759  321           
12 23.11.17 310 (СЗ) 20000 м  {снег}  10/0 средняя 
[As op]
-12 -13.9 86 -12  1018.3  -0.9  759  321           
15 23.11.17 320 (СЗ) 20000 м    10/0 средняя 
[As op]
-12 -13.9 86 -12  1017.2  -1.1  758  321    -11.6  0.7     
18 23.11.17 290 (З) 20000 м  слаб. снег  10/0 средняя 
[As op]
-12 -13.9 86 -12  1015.9  -1.2  757  320           
21 23.11.17 тихо ()   20000 м  слаб. снег  10/0 средняя 
[As op]
-12.1 -14 86 -12  1013.9  -2  755  320           
00 24.11.17 тихо ()   20000 м  слаб. снег  10/0 средняя 
[As op]
-11.6 -13.5 86 -12  1012.3  -1.5  754  319           
03 24.11.17 230 (ЮЗ) 20000 м  слаб. снег  10/0 средняя 
[As op]
-10.9 -12.8 86 -11  1011  -1.3  753  317  -12.1    0.0  20  равномерный
сухой снег
100% 
06 24.11.17 360 (С) 20000 м  слаб. снег  3/3 1000 м 
[Sc diur, vesp]
-12.2 -14.1 86 -12  1012.9  1.9  755  320  -13.1         
09 24.11.17 240 (ЮЗ) 20000 м    4/0 верхняя 
[Ci fib]
-8.5 -12.1 75 -12  1016.8  3.9  758  316           
12 24.11.17 260 (З) 20000 м    5/0 верхняя 
[Ci]
-11.2 -14.9 74 -14  1019.9  2.9  760  321           
15 24.11.17 250 (З) 20000 м    4/0 верхняя 
[Ci fib]
-11.6 -15.5 73 -16  1021  1.2  761  321    -7       
18 24.11.17 270 (З) 20000 м    4/0 верхняя 
[Cs]
-10 -14.2 71 -13  1021  761  319           
21 24.11.17 270 (З) 20000 м    ясно 
-10.4 -14.2 74 -12  1022  761  320           
Время (UTC), дата Ветер
(°,м/с) 
Видим.   Явления Облачность Т
(°С)
Тd
(°С)
f(%) Тe
(°С)
Pmin
(гПа)
dP
(гПа)
Po
(мм)
O2
(г/м3)
Тmin Tmax R s Состояние
почвы

Для получения пояснительной информации подведите курсор к названию столбца.

ПОГОДА в Няксимволе - архив

Всё, что Вы хотите узнать о погоде в Няксимволе - удобно и подробно!

Выберите нужную дату (начиная с 1 января 2015* года) и нажмите кнопку "Найти".
Будут отображены архивные сводки погоды по пункту Няксимволь, начиная с указанной даты.


Отображать данные в формате CSV (для использования в таблицах Excel)


Внимание! Наш архив погоды предназначен исключительно для личного некоммерческого использования в познавательных целях. Если Вам необходимы официальные справки о состоянии погоды (для производственных, юридических, коммерческих и т.п. целей), обращайтесь в органы Росгидромета.

*Примечание: данная дата относится к архиву по метеостанциям СССР (Россия, СНГ, Балтия).
Архив по метеостанциям Зарубежной Европы и Азии (кроме Китая) хранится 10 дней, по другим регионам земного шара (Китай, Африка, Америка, Австралия, Океания) - 1 день.

Няксимволь - район местоположения метеостанции


Название, широта, долгота, высота метеостанции:
Няксимволь 62.4°ш. 60.9°д. 51 м над ур. моря [Российская Федерация]

Дополнительная информация

В oтличие oт бoльшинства пoгoдных сайтoв мы публикуем пoдрoбную метеoинфoрмацию в детальнoм прoфессиoнальнoм фoрмате.

Характеристики температуры и влажнoсти вoздуха измеряются на высoте 2 м в тени вдали oт зданий и деревьев.
Скoрoсть ветра измеряется на высoте 10 м (на урoвне рoста челoвека скoрoсть ветра ниже в 1.5-2 раза). Если метеoстанция нахoдится в гoрoде или в лесу, тo скoрoсть ветра занижена на 2-4 м/с пo сравнению с oткрытым местoм. Скoрoсть ветра над акватoриями крупных рек и oзёр, а также на вершинах хoлмoв на 2-5 м/с выше, чем в oбычных услoвиях.
Атмoсфернoе давление в разных тoчках местнoсти мoжет значительнo oтличаться oт давления на метеoстанции, в зависимoсти oт услoвий рельефа (при пoдъёме на 10 м давление пoнижается примернo на 1 мм рт.ст.).